Location: Caltech
(34.1382°N, 118.1253°W)
Time: 07:29:36
(UTC-07:00)

Cosmos 1606 - Visible Passes

Search period start: 21 July 2017 00:00
Search period end: 31 July 2017 00:00
Orbit: 506 x 532 km, 82.5° (Epoch: 20 July)

Date Brightness Start Highest point End Pass type
(mag) Time Alt. Az. Time Alt. Az. Time Alt. Az.
21 Jul 3.7 21:50:25 10° NNE 21:53:21 31° ENE 21:53:21 31° ENE visible
21 Jul 5.7 23:28:03 10° WNW 23:28:27 11° WNW 23:28:27 11° WNW visible
22 Jul 3.8 21:36:36 10° NNE 21:39:42 27° ENE 21:39:42 27° ENE visible
22 Jul 5.5 23:13:24 10° WNW 23:14:47 13° WNW 23:14:47 13° WNW visible
23 Jul 4.0 21:22:50 10° NNE 21:25:52 23° ENE 21:26:04 23° E visible
23 Jul 5.2 22:59:01 10° NW 23:01:10 16° W 23:01:10 16° W visible
24 Jul 4.2 21:09:06 10° NNE 21:11:52 19° ENE 21:12:28 18° E visible
24 Jul 4.9 22:44:44 10° NW 22:47:29 19° W 22:47:33 19° W visible
25 Jul 4.4 20:55:27 10° NE 20:57:52 16° ENE 20:58:53 15° E visible
25 Jul 4.6 22:30:32 10° NW 22:33:34 23° W 22:33:58 23° W visible
26 Jul 4.7 20:41:55 10° NE 20:43:51 13° ENE 20:45:19 11° E visible
26 Jul 4.3 22:16:23 10° NNW 22:19:39 28° W 22:20:25 26° WSW visible
27 Jul 4.8 20:28:37 10° NE 20:29:50 11° ENE 20:31:01 10° E visible
27 Jul 4.1 22:02:16 10° NNW 22:05:43 34° W 22:06:54 27° SW visible
28 Jul 3.8 21:48:11 10° NNW 21:51:46 41° W 21:53:24 26° SW visible
29 Jul 3.4 21:34:09 10° NNW 21:37:49 51° W 21:39:57 22° SSW visible
30 Jul 3.0 21:20:07 10° NNW 21:23:52 63° W 21:26:34 18° S visible
